Location: *
(50.0872°S, 176.5570°W)
Time: 15:39:31
(UTC+00:00)

Daily predictions for brighter satellites

Satellite Brightness Start Highest point End
(mag) Time Altitude Azimuth Time Altitude Azimuth Time Altitude Azimuth
USA 59 Rocket 3.9 13:08:24 20° E 13:08:24 20° E 13:13:24 10° ESE
USA 59 Rocket 2.3 14:55:01 64° ENE 14:55:01 64° ENE 15:05:31 10° SE
ATLAS 5 CENTAUR R/B 4.5 14:59:49 20° SSE 14:59:49 20° SSE 15:02:26 10° SE
SL-16 R/B 3.4 15:32:58 10° SSE 15:37:08 44° SSE 15:37:08 44° SSE
BREEZE M DEB (TANK) 4.4 15:47:48 37° NE 15:47:48 37° NE 15:53:42 10° ENE
Cosmos 1697 Rocket 4.3 16:00:09 24° S 16:00:09 24° S 16:02:34 10° SSE
Cosmos 1980 Rocket 3.1 16:04:59 41° SSE 16:04:59 41° SSE 16:08:39 10° SSE
Lacrosse 5 3.1 16:09:34 35° SSE 16:09:34 35° SSE 16:13:05 10° ESE
Cosmos 2369 4.1 16:09:32 58° SSE 16:09:32 58° SSE 16:14:07 10° SSE
Cosmos 2227 4.3 16:11:06 73° E 16:11:06 73° E 16:16:23 10° NE
Lacrosse 4 Rocket 4.0 16:19:27 13° SSE 16:19:27 13° SSE 16:20:06 10° SSE
Magion-5 4.2 16:19:03 49° S 16:19:03 49° S 16:22:38 10° SE
Cosmos 44 Rocket 3.7 16:20:59 57° E 16:20:59 57° E 16:25:02 10° SE
Cosmos 2263 Rocket 4.5 16:25:28 11° N 16:25:28 11° N 16:25:43 10° N
Cosmos 841 Rocket 3.8 16:22:08 58° SSE 16:22:08 58° SSE 16:26:23 10° SSE
ATLAS 3B R/B 3.9 16:24:20 23° SSW 16:25:11 24° S 16:30:09 10° SE
Gbstr 26 Del rocket 3.6 16:26:59 61° SE 16:26:59 61° SE 16:31:34 10° E
SL-16 R/B 3.0 16:24:44 10° N 16:30:11 49° ENE 16:35:42 10° SE
Nadezhda 3 Rocket 3.8 16:26:08 10° N 16:32:24 85° W 16:38:43 10° S
Cosmos 1844 3.9 16:38:39 34° SSW 16:41:05 68° ESE 16:46:40 10° NE
ATLAS 5 CENTAUR R/B 2.3 16:41:58 64° S 16:42:29 73° SE 16:52:00 10° NE
ATLAS 5 CENTAUR R/B 3.5 16:40:38 24° SSW 16:43:18 34° SSE 16:48:13 10° E
Cosmos 2237 4.5 16:39:45 14° NNW 16:44:43 68° ENE 16:50:26 10° SSE
USA 59 Rocket 2.3 16:41:38 39° W 16:45:54 61° SW 16:56:19 10° SE
Cosmos 1844 Rocket 2.6 16:48:55 35° SSW 16:51:27 87° ESE 16:57:10 10° NNE
Cosmos 1892 Rocket 3.6 16:49:44 35° S 16:51:34 80° E 16:55:58 10° NNE
PSLV R/B 3.5 16:48:34 10° N 16:52:27 68° NNW 16:52:27 68° NNW
Cosmos 1461 3.2 16:53:28 56° NNW 16:53:28 56° NNW 16:57:13 10° NNE
Cosmos 2360 Rocket 3.5 16:50:32 10° N 16:55:46 40° ENE 17:01:02 10° SE
Cosmos 1455 Rocket 3.5 16:53:25 10° N 16:57:53 66° E 17:02:23 10° SSE
USA 234 4.1 16:55:20 10° ESE 17:01:44 48° NE 17:08:05 10° NNW
CORIOLIS 4.1 16:58:44 10° NNE 17:04:08 87° ESE 17:09:36 10° SSW
USA 238 DEB 3.9 17:07:26 37° W 17:08:57 43° WNW 17:14:46 10° N
USA 238 3.9 17:07:30 38° W 17:09:02 44° WNW 17:14:51 10° N
Meteor 1-31 Rocket 3.6 17:06:18 10° NE 17:09:54 49° ESE 17:13:37 10° S
Cosmos 1867 3.5 17:07:58 40° SW 17:09:55 71° NW 17:15:17 10° NNE
Cosmos 2278 3.6 17:06:54 22° NW 17:10:44 70° WSW 17:16:29 10° SSE
SMAP 3.0 17:13:44 10° N 17:18:26 70° WNW 17:22:51 12° SSW
Cosmos 2333 Rocket 3.1 17:14:20 10° N 17:19:57 53° ENE 17:25:36 10° SE
SL-16 R/B 3.5 17:17:17 10° S 17:22:12 26° SW 17:22:12 26° SW
CZ-2C R/B 2.6 17:19:56 10° NNE 17:23:34 82° ESE 17:26:40 15° SSW
ISS -2.5 17:22:59 22° NNW 17:24:39 38° NNE 17:27:50 10° E
Timation 2 Rocket 4.1 17:19:25 15° SSW 17:25:01 86° WNW 17:31:51 10° NNE
USA 276 3.1 17:26:23 29° NNW 17:27:26 40° NNE 17:30:23 10° E
Cosmos 1934 Rocket 4.2 17:22:05 10° SSW 17:27:52 44° W 17:33:35 10° NNW
USA 305 3.4 17:28:19 17° NW 17:31:07 50° NE 17:34:56 10° ESE
Cosmos 2322 Rocket 2.2 17:25:43 10° NNW 17:31:27 88° ENE 17:37:16 10° SSE
Okean 1 Rocket 4.3 17:33:04 24° SW 17:33:04 24° SW 17:35:40 10° S
Helios 1B rocket 2.3 17:29:49 10° NNE 17:33:46 89° ESE 17:37:47 10° SSW
PKM 4.4 17:33:01 31° SW 17:33:59 37° S 17:36:54 10° ESE
Okean 1-7 Rocket 4.5 17:32:27 10° S 17:36:52 51° ESE 17:41:17 10° NNE
Cosmos 1606 3.3 17:33:57 10° N 17:37:31 56° E 17:41:10 10° SSE
Cosmos 1943 Rocket 4.2 17:34:04 10° S 17:38:11 20° SE 17:42:17 10° E
Cosmos 1626 Rocket 3.6 17:34:07 10° S 17:38:34 82° E 17:42:57 10° NNE
Iridium 4 Rocket 3.5 17:36:53 10° N 17:41:27 74° E 17:46:32 10° S
Cosmos 1697 Rocket 4.4 17:41:54 14° SW 17:42:33 15° SSW 17:45:40 10° S
Meteor 2-3 Rocket 3.9 17:38:48 10° S 17:44:30 78° ESE 17:50:08 10° NNE
Blok-2BL 4.2 17:45:32 23° N 17:45:32 23° N 17:46:25 10° NNE
Cosmos 2278 Rocket 3.7 17:42:40 10° SSW 17:47:47 32° SE 17:52:52 10° ENE
Cosmos 1980 Rocket 3.5 17:46:47 19° SW 17:47:55 20° SW 17:52:04 10° S
CZ-4B R/B 3.6 17:44:31 10° N 17:48:09 63° WNW 17:51:58 10° SSW
NOSS 3-4 (A) 4.1 17:41:26 10° NW 17:50:05 70° SW 17:57:59 10° SE
NOSS 3-4 (C) 4.1 17:41:28 10° NW 17:50:08 70° SW 17:58:02 10° SE
JB-3 4.1 17:46:26 10° SSE 17:50:19 86° WSW 17:54:07 10° NNW
USA 306 3.2 17:51:15 16° E 17:51:15 16° E 17:51:38 10° ESE
Lacrosse 5 2.7 17:48:46 19° SW 17:52:01 41° S 17:56:53 10° E
Resurs 01 Rocket 4.4 17:51:24 10° E 17:53:18 13° SE 17:55:12 10° SSE
NOAA 6 4.2 17:49:06 10° NNE 17:54:18 81° ESE 17:59:34 10° SSW
Cosmos 2058 3.4 17:50:46 11° SSW 17:54:27 38° W 17:58:16 10° NNW
IGS 5A 3.6 17:50:23 10° NNE 17:54:30 78° ESE 17:58:41 10° S
Lacrosse 4 Rocket 3.7 17:55:39 10° SSW 17:55:56 10° SSW 17:56:14 10° SSW
Meteor 2-1 Rocket 4.3 17:50:42 10° NNW 17:56:36 81° WSW 18:02:26 10° S
Cosmos 2228 3.2 17:54:39 10° N 17:59:00 77° E 18:03:23 10° SSE
Cosmos 1125 Rocket 3.7 17:54:20 10° SSW 17:59:27 53° WNW 18:04:30 10° N
Cosmos 1605 Rocket 4.4 17:53:54 10° SSW 17:59:54 44° W 18:05:55 10° NNW
SKYMED 2 3.8 17:56:57 10° SSE 18:01:24 76° ENE 18:05:48 10° N
Cosmos 44 Rocket 4.1 17:59:40 19° W 18:02:09 29° SSW 18:06:21 10° SSE
Cosmos 1544 Rocket 3.5 18:00:21 10° NNW 18:04:49 70° WSW 18:09:19 10° S
USA 307 2.9 18:05:08 10° NW 18:08:59 69° NNE 18:12:55 10° ESE
ADEOS 4.2 18:05:15 10° NNE 18:10:24 58° ESE 18:15:37 10° S
Cosmos 1271 Rocket 3.1 18:07:36 10° S 18:11:31 65° ESE 18:15:22 10° NNE
SeaSat 1 3.2 18:07:38 10° NE 18:12:27 53° SE 18:17:17 10° SSW
Gbstr 26 Del rocket 3.5 18:09:15 16° WSW 18:13:10 85° NNW 18:19:05 10° ENE
Okean O Rocket 4.2 18:10:38 10° E 18:13:16 16° ESE 18:15:54 10° SSE
Cosmos 1459 Rocket 4.0 18:06:59 10° S 18:13:16 89° W 18:19:24 10° N
SL-16 R/B 2.8 18:09:13 10° WNW 18:14:29 36° SW 18:19:46 10° SSE
Cosmos 2016 Rocket 4.5 18:09:18 10° S 18:15:34 66° ESE 18:21:42 10° NNE
ATLAS 3B R/B 3.6 18:11:58 10° SW 18:17:41 34° SSE 18:23:19 10° E
USA 81 4.1 18:12:26 10° N 18:17:46 89° E 18:23:10 10° S
Meteor 2-13 Rocket 4.4 18:12:21 10° NNW 18:18:31 78° W 18:24:48 10° S
Cosmos 2333 4.2 18:12:57 10° NW 18:18:46 77° WSW 18:24:36 10° SSE
CBERS 1 LM4 rocket 4.5 18:16:18 10° NNE 18:21:25 83° WNW 18:26:25 10° SSW
CZ-4B R/B 3.8 18:23:00 10° NE 18:27:03 50° ESE 18:30:59 10° S
Cosmos 836 Rocket 4.5 18:22:31 10° NNW 18:27:48 77° WSW 18:33:10 10° SSE
ATLAS 5 CENTAUR R/B 2.1 18:21:53 10° SW 18:28:03 85° NW 18:32:56 10° NE
COSMOS 2428 3.7 18:25:45 10° N 18:31:19 54° ENE 18:36:59 10° SE
YAOGAN 1 2.6 18:27:07 10° N 18:31:27 77° WNW 18:35:51 10° SSW
Cosmos 2219 Rocket 2.2 18:26:37 10° NNW 18:32:21 80° WSW 18:38:07 10° SSE
Cosmos 1602 Rocket 3.8 18:28:47 10° SSW 18:33:01 48° W 18:37:12 10° NNW
SAR-Lupe-2 4.4 18:30:35 10° NNW 18:33:53 32° W 18:37:13 10° SSW
Cosmos 1844 Rocket 4.2 18:30:53 10° WSW 18:34:34 18° W 18:38:13 10° NW
Cosmos 2369 Rocket 4.4 18:31:50 10° S 18:35:25 16° SSE 18:39:00 10° ESE
ADEOS Rocket 3.3 18:28:32 10° N 18:35:26 63° WNW 18:41:43 10° SSW
Cosmos 2150 Rocket 4.4 18:30:56 10° SW 18:36:03 46° WNW 18:41:01 10° N
Cosmos 2208 Rocket 4.1 18:31:59 10° NW 18:37:06 55° WSW 18:42:18 10° SSE
Cosmos 1570 Rocket 4.4 18:32:14 10° NW 18:37:22 44° WSW 18:42:33 10° SSE
Cosmos 1544 4.2 18:36:20 10° SW 18:38:06 15° W 18:39:50 10° NW
USA 59 Rocket 2.8 18:28:35 10° WSW 18:38:29 40° S 18:47:40 10° ESE
Cosmos 2360 Rocket 2.6 18:34:21 10° WNW 18:39:45 43° SW 18:45:10 10° SSE
Cosmos 1758 Rocket 4.2 18:35:53 10° SSW 18:39:57 36° W 18:44:00 10° NNW
Meteor PRIRODA 3.4 18:37:04 10° N 18:40:29 77° WNW 18:43:59 10° SSW
Cosmos 1825 Rocket 3.5 18:37:39 10° SSW 18:42:05 80° W 18:46:27 10° N
Cosmos 1606 Rocket 3.8 18:37:51 10° N 18:42:20 82° E 18:46:51 10° SSE
SJ-6B 3.4 18:38:46 10° NNE 18:42:35 60° ESE 18:46:32 10° S
Meteor 1-31 Rocket 4.3 18:41:38 10° NW 18:44:03 16° W 18:46:30 10° SW
USA 234 3.3 18:38:22 10° ESE 18:44:59 74° SSW 18:51:35 10° WNW
Meteor 1-27 4.3 18:41:55 10° NNW 18:47:45 75° WSW 18:53:34 10° S
Cosmos 2233 Rocket 4.3 18:42:06 10° S 18:48:23 76° E 18:54:33 10° NNE
